GFSSGP_850_rhum_165.txt.gz
RH
15 15 19 21 26 27 24 14 11 15 33 59 54 69 88 90 80 88 98 100 100 98 96 76 63 58 56 56 55 53 52 51 51 52 52 47 44 48 55 59 56 56 55 53 51 48 51 58 57
14 15 19 18 27 30 26 16 29 31 33 45 49 58 71 81 91 99 99 100 98 97 93 78 67 64 62 60 59 59 58 56 54 54 54 55 50 48 50 53 59 57 53 53 52 50 52 59 57
13 15 19 26 28 26 18 23 24 21 26 31 52 59 66 79 93 93 99 99 96 91 96 99 74 70 68 68 68 67 65 62 59 59 58 57 56 55 50 48 48 54 54 52 52 52 54 59 58
12 15 17 23 20 17 12 15 19 16 22 28 46 70 78 77 85 90 94 98 92 95 100 96 76 71 70 72 73 74 74 72 67 64 63 62 61 59 57 53 50 50 52 52 54 54 54 56 55
10 14 26 26 24 16 10 9 15 16 30 42 40 63 72 70 82 89 92 94 97 98 93 85 86 83 80 77 74 75 77 78 77 74 71 70 70 69 67 65 63 58 56 53 52 53 53 50 51
9 15 27 28 20 12 10 9 8 26 32 39 52 57 64 66 72 74 86 92 92 90 87 84 80 76 71 67 73 80 81 79 78 77 77 78 77 77 78 74 70 69 67 64 59 56 53 50 50
11 18 20 18 16 14 12 10 17 22 24 31 42 58 68 62 63 60 57 48 45 44 44 44 47 47 46 46 60 65 72 72 74 77 76 76 79 79 73 75 78 77 77 72 71 66 59 55 55
8 14 13 14 16 14 12 13 17 20 26 28 40 59 59 55 52 45 42 42 32 26 22 21 22 25 20 19 19 18 17 16 16 17 21 39 68 76 82 80 75 77 78 79 81 77 73 67 61
8 13 17 14 14 12 9 12 18 22 29 36 46 50 57 46 44 40 41 40 32 23 19 17 17 17 15 16 15 14 16 16 15 16 16 16 16 19 29 52 63 76 79 82 84 82 82 80 77
9 17 13 10 11 10 10 11 16 22 27 36 39 44 48 44 42 39 38 36 33 25 17 17 17 16 15 15 16 16 17 18 16 16 17 17 16 16 16 17 17 17 35 74 87 88 88 85 84
10 14 11 9 9 8 9 13 14 22 25 29 36 38 38 37 34 32 35 35 35 29 22 20 18 17 16 17 17 19 20 19 18 16 15 15 14 14 14 14 15 17 18 19 28 68 80 86 97
10 9 10 7 9 9 10 10 26 24 27 27 32 35 34 33 32 32 36 40 41 35 26 22 20 20 20 19 19 19 18 18 16 15 16 16 15 15 16 15 16 15 18 18 21 24 25 37 66
17 16 13 9 8 9 9 14 27 28 27 28 30 31 32 32 34 36 37 42 44 38 32 26 26 23 22 21 19 20 19 19 19 16 18 16 18 18 19 20 19 19 21 24 24 25 25 24 29
16 15 15 14 14 9 10 15 19 29 28 28 29 31 32 34 35 40 44 46 48 42 38 32 30 27 26 24 21 22 22 23 23 20 23 21 21 22 22 22 22 23 23 23 24 23 23 24 25
18 20 18 17 16 16 10 14 17 26 25 28 30 30 32 36 40 43 45 45 51 46 38 32 30 28 27 27 26 26 27 30 30 28 28 25 23 25 26 24 24 26 26 26 27 26 25 25 26
23 24 30 20 18 16 12 21 24 25 26 27 27 30 33 35 37 42 46 48 49 48 40 35 32 30 28 29 31 34 39 45 42 35 31 29 25 28 28 27 28 31 31 30 30 29 27 27 28
26 36 29 23 16 15 15 20 31 27 25 25 26 29 33 36 40 43 47 50 50 47 47 43 37 32 33 35 36 43 54 65 55 42 33 33 29 29 28 31 33 32 32 32 33 34 33 31 29
31 25 21 19 15 15 15 17 30 26 24 25 25 28 32 36 40 46 49 52 53 53 55 50 40 34 30 36 33 40 55 73 74 60 48 41 38 35 31 36 35 36 36 36 36 38 38 40 39
24 22 24 24 18 13 16 18 32 28 25 24 25 28 30 35 41 49 48 50 54 58 56 59 53 40 33 31 30 38 48 76 78 72 60 49 47 39 34 40 40 40 43 48 48 46 42 42 46
28 30 32 27 22 22 23 22 17 29 26 25 25 27 29 39 47 50 52 54 59 57 63 66 61 47 40 33 38 47 72 79 79 73 70 66 69 56 50 46 42 42 44 47 51 54 52 58 71
31 32 31 32 24 24 26 28 23 18 23 25 25 24 29 39 47 50 54 55 59 60 65 69 69 52 44 38 42 49 65 69 68 59 64 79 80 66 57 51 46 46 45 49 55 55 57 63 82
34 26 24 28 36 46 27 43 27 21 19 26 26 26 31 40 44 49 53 58 61 61 64 68 67 57 46 41 38 41 46 51 62 71 65 74 77 74 63 54 46 47 50 52 55 60 72 87 91
27 25 27 30 37 40 31 34 24 20 21 30 28 27 31 41 44 48 52 57 56 63 65 70 70 57 49 47 44 50 54 64 65 62 60 62 68 72 62 58 57 67 78 73 77 79 98 100 100
23 27 31 32 36 61 35 36 35 27 27 27 28 32 40 43 46 49 53 54 58 60 64 67 73 61 56 66 83 73 72 73 66 60 58 61 62 69 68 59 62 74 77 83 86 100 100 100 100
24 33 60 61 60 62 29 33 31 41 44 38 34 45 46 48 49 52 52 55 57 61 67 72 78 74 67 77 88 80 77 78 76 66 62 63 59 67 69 61 63 67 69 74 86 100 100 100 100
32 34 60 61 57 47 24 33 24 51 50 51 54 56 52 50 50 50 52 55 60 68 77 79 80 74 68 79 90 85 80 81 82 76 65 66 62 75 61 56 59 63 64 73 87 100 100 100 100
20 30 24 34 35 50 34 26 38 50 53 55 54 52 54 51 49 49 52 59 64 70 79 83 80 71 69 76 89 86 78 76 78 74 67 60 55 60 52 56 56 64 65 72 93 100 100 100 100
20 21 34 40 52 51 43 34 38 59 64 64 68 57 54 53 52 57 60 66 67 79 82 80 71 68 66 72 77 80 76 77 80 72 60 52 50 49 48 54 58 62 66 70 93 100 100 100 100
23 30 30 30 50 50 47 64 64 60 59 68 68 54 54 56 58 59 63 70 72 75 82 76 66 59 54 59 69 68 68 74 79 68 56 47 46 42 42 43 37 50 61 70 86 100 97 94 95
20 25 26 60 45 61 69 61 39 59 56 57 68 57 54 56 63 66 72 71 57 58 63 60 58 52 49 51 54 61 58 56 62 64 58 46 41 36 35 32 30 32 54 62 64 78 64 64 64

GFSSGP_850_rhum_168.txt.gz
RH
13 15 17 21 24 29 28 19 16 31 69 68 64 63 83 91 74 82 99 100 99 97 92 82 68 62 58 58 58 57 55 53 53 53 52 48 44 43 47 48 48 49 54 53 49 47 49 53 54
13 15 18 21 29 31 26 22 43 50 69 63 66 72 78 88 92 99 100 100 97 95 95 85 71 66 63 64 64 63 61 59 57 56 56 55 52 49 47 47 48 47 46 48 50 48 50 51 51
10 13 18 30 34 29 22 19 30 47 59 45 62 68 74 83 92 96 100 98 98 93 94 99 75 74 74 75 72 70 69 66 64 62 61 60 60 59 58 53 48 45 45 46 47 49 49 48 49
9 14 20 28 25 19 14 18 23 39 39 40 61 72 79 79 90 97 94 90 87 89 95 98 79 76 76 76 75 76 75 75 72 68 66 66 65 65 64 61 59 57 53 50 50 52 55 52 50
8 15 30 30 26 20 13 11 22 41 48 53 50 78 76 89 93 89 89 87 88 93 94 86 89 86 80 71 69 68 69 72 75 75 74 73 72 72 73 74 72 71 68 62 59 58 58 53 53
9 17 30 32 23 16 13 23 29 37 44 49 65 65 69 78 80 84 87 90 97 97 96 93 91 80 68 62 60 58 61 71 75 76 77 76 77 76 76 77 78 78 79 75 72 69 64 59 55
10 18 19 19 18 17 13 17 24 29 34 40 55 64 68 71 75 82 80 80 72 62 62 66 66 57 47 36 37 32 28 34 42 51 56 55 66 76 78 78 77 79 80 82 81 79 81 78 70
8 16 14 15 17 16 17 17 20 24 32 37 55 71 64 67 59 52 47 38 34 30 30 34 40 31 22 16 15 13 13 14 14 15 15 17 20 26 38 66 81 81 80 81 84 83 87 89 86
7 16 17 13 14 14 12 18 24 29 35 48 50 62 61 58 48 44 44 42 34 28 25 25 24 21 17 14 16 16 14 15 16 16 16 16 16 16 16 17 21 29 49 73 80 81 82 84 90
10 18 14 11 11 11 11 14 21 26 36 46 58 62 54 52 44 43 41 38 37 27 25 23 21 20 18 18 19 20 17 18 18 18 18 17 16 14 14 14 15 15 17 18 28 56 76 84 88
12 15 12 10 9 9 11 18 19 24 29 38 50 48 53 49 44 41 39 36 34 28 25 24 23 23 22 22 23 23 21 19 19 17 16 16 16 16 15 14 14 15 14 16 18 21 26 44 67
17 14 14 11 9 8 10 18 27 27 26 28 44 45 47 45 40 36 35 34 33 27 26 25 24 25 24 24 24 25 23 20 20 19 18 17 16 15 15 14 14 15 15 16 17 16 18 19 22
19 17 16 15 14 9 11 22 29 33 32 36 37 36 34 33 34 36 37 38 36 32 29 26 25 26 24 24 25 26 24 24 24 22 18 18 17 18 18 17 18 17 18 18 18 17 17 17 18
20 18 17 15 15 16 23 31 22 31 33 34 34 34 34 33 34 36 37 35 35 34 32 33 32 30 29 27 27 26 25 26 25 22 21 21 19 19 20 20 20 20 19 20 21 21 20 20 19
21 24 24 20 18 18 11 26 23 27 29 30 30 31 32 32 33 34 38 38 40 44 40 39 37 36 37 37 36 36 34 27 23 22 21 22 21 20 21 20 21 22 23 23 22 22 23 21 21
23 26 31 23 19 18 13 22 22 29 29 30 31 32 31 33 36 39 42 43 45 44 44 44 41 44 49 49 49 56 55 44 32 29 26 23 21 22 23 22 24 26 26 25 25 23 22 21 20
31 34 32 28 19 20 18 21 30 30 29 31 31 32 34 38 42 44 45 46 45 44 44 47 48 50 55 61 67 67 68 55 47 43 36 29 26 26 27 25 28 28 26 26 26 26 25 23 20
36 31 27 25 18 15 15 22 36 32 29 30 32 32 34 37 43 45 48 48 49 50 49 47 47 46 47 55 65 72 67 57 51 48 41 37 32 30 31 29 28 27 26 26 27 28 28 27 23
31 33 29 25 23 22 17 18 36 33 30 30 31 34 36 40 46 48 50 49 49 53 52 48 48 48 44 46 46 56 53 56 55 55 49 42 38 35 34 31 30 29 28 28 30 32 31 32 29
33 34 37 31 24 23 27 29 22 35 30 28 29 34 39 46 52 52 51 52 51 53 52 49 46 48 41 42 46 53 59 62 62 61 51 41 38 37 37 35 33 34 34 35 37 40 43 47 52
32 35 35 32 30 26 29 33 25 26 29 28 28 30 40 44 52 52 53 55 55 55 58 61 53 55 48 46 56 59 64 68 67 53 50 46 43 42 40 38 38 35 36 39 46 47 54 72 88
33 27 27 31 38 44 29 52 30 24 27 28 28 32 43 50 51 53 56 60 58 57 60 62 58 57 52 47 46 48 48 45 51 57 62 60 52 44 44 41 38 37 40 41 48 57 68 82 91
30 27 30 30 36 39 37 41 29 22 22 25 30 42 52 54 50 55 60 60 59 56 58 64 58 60 58 56 53 51 50 50 56 57 56 61 62 48 46 43 39 38 40 43 48 54 63 77 86
24 30 35 37 41 63 38 38 44 38 49 43 48 50 54 54 55 59 62 62 56 55 56 64 57 62 62 64 66 61 57 59 61 59 58 61 62 54 50 47 43 42 45 48 56 67 82 84 100
25 39 60 60 66 58 34 35 39 59 60 51 58 58 57 54 58 61 60 55 52 52 56 59 56 66 66 69 71 72 67 63 59 62 63 61 58 54 52 49 48 48 54 61 73 83 90 96 99
34 40 62 67 65 52 25 33 34 60 60 62 61 60 57 56 55 54 50 51 54 58 58 60 63 70 65 68 73 77 77 71 66 64 62 57 56 53 50 48 50 55 59 68 89 100 100 100 98
29 36 34 44 41 54 40 34 56 58 62 61 58 56 54 52 49 49 54 60 64 59 64 66 59 61 68 70 68 77 75 69 69 67 59 50 50 47 44 42 44 53 60 66 88 100 100 100 94
22 22 31 44 46 51 44 38 42 68 70 66 70 58 51 52 55 56 60 61 61 63 64 62 60 65 67 71 70 72 75 70 66 59 45 46 42 39 37 33 34 43 54 60 71 88 76 71 77
26 30 31 36 58 57 56 62 58 64 64 68 65 62 51 52 56 60 62 62 64 66 64 60 60 62 61 68 75 78 69 57 54 47 46 41 36 35 33 30 30 38 45 46 42 46 42 39 53
23 27 30 59 41 65 75 54 44 60 61 60 58 52 55 52 54 58 59 62 66 65 58 58 54 52 53 57 64 62 48 47 53 54 50 48 41 36 32 23 23 35 39 35 29 27 27 26 27

GFSSGP_850_rhum_174.txt.gz
RH
12 13 15 21 22 32 29 24 18 70 73 69 59 62 66 87 72 74 99 100 99 94 79 70 63 60 60 59 58 56 54 53 53 55 55 54 53 53 52 54 54 54 54 54 51 50 50 52 56
10 11 17 21 30 38 44 28 49 60 77 69 64 72 77 93 94 97 100 100 100 98 98 88 71 64 64 65 62 61 60 59 59 59 59 60 61 61 58 54 50 49 49 49 49 49 50 49 54
10 12 18 36 42 27 26 19 76 76 60 60 72 72 81 93 95 96 100 100 99 100 94 90 78 70 71 71 70 70 69 67 66 65 65 65 66 66 66 62 58 53 49 48 48 48 49 52 52
9 15 22 32 27 24 20 26 70 75 55 57 70 79 82 86 96 94 96 98 99 94 90 96 78 78 78 76 77 78 78 77 74 72 70 68 70 69 70 70 68 65 62 57 52 48 49 52 50
9 17 34 32 28 24 18 33 68 61 60 68 64 87 84 89 93 98 92 93 93 87 93 100 88 82 76 75 72 75 72 69 72 77 78 77 77 77 78 78 79 78 76 74 71 66 61 55 53
11 18 31 28 21 18 20 37 47 53 62 67 67 76 80 89 93 94 89 82 86 90 98 95 93 86 78 65 58 59 65 65 71 77 78 79 81 80 81 82 83 83 81 79 79 79 78 74 69
12 20 22 20 19 18 17 26 34 42 56 64 70 74 78 93 94 81 80 82 90 95 99 98 90 81 65 48 44 47 46 44 44 46 41 40 39 45 49 42 46 57 68 78 82 80 81 81 81
10 18 17 16 18 18 19 23 30 38 42 63 61 76 83 90 92 84 80 85 90 91 90 89 76 57 45 36 36 24 20 18 17 17 18 18 17 16 17 19 21 24 24 26 35 55 80 85 86
9 17 18 14 15 14 18 21 32 36 46 49 55 60 61 80 84 81 83 84 84 64 47 51 50 42 29 22 20 19 19 19 18 18 19 20 20 19 18 17 16 15 15 16 16 16 19 33 64
13 18 15 12 12 12 14 20 33 42 54 60 60 64 68 79 81 80 75 65 43 32 29 30 33 31 28 27 26 25 23 21 20 20 19 19 19 18 18 16 16 16 15 15 15 15 15 16 18
18 15 12 12 12 11 18 23 25 38 41 50 54 61 77 79 74 64 50 40 35 30 26 24 23 26 28 29 28 28 27 25 22 21 20 19 19 18 17 17 17 16 14 15 14 15 14 14 15
24 17 19 17 18 13 12 22 26 29 21 23 44 51 73 70 60 52 48 43 40 37 33 29 28 26 25 25 26 28 27 25 24 22 21 20 19 18 18 17 15 15 14 14 14 14 15 16 16
25 22 21 20 20 17 14 24 26 27 26 28 52 64 66 58 50 47 45 43 40 39 34 32 34 34 34 31 30 30 30 28 26 25 23 21 20 18 16 15 15 14 14 14 14 14 15 15 16
26 26 25 22 21 17 16 26 24 27 32 48 58 61 57 52 48 47 45 42 41 40 36 33 34 35 34 34 35 34 31 29 29 27 25 23 20 19 19 18 16 15 14 14 15 14 14 15 15
26 28 27 24 23 25 21 24 29 25 43 57 60 59 57 52 49 46 43 43 44 42 39 38 40 41 42 41 39 37 37 35 34 31 28 26 23 21 20 19 19 19 17 16 15 14 13 12 12
29 30 34 25 25 22 20 32 24 30 46 53 55 56 56 53 50 46 47 48 47 45 43 43 42 43 43 42 44 44 41 40 38 35 31 28 25 24 24 23 21 20 19 18 16 14 12 11 10
42 41 32 31 24 21 18 25 22 30 43 46 48 49 53 53 47 48 50 50 48 47 45 43 42 42 43 43 45 47 47 43 38 35 34 32 29 27 25 23 22 21 20 18 17 16 14 12 10
37 37 37 39 30 27 23 26 26 37 40 41 42 43 44 44 46 47 51 53 50 47 44 42 42 42 44 46 49 52 52 50 46 43 40 35 33 33 30 27 25 23 21 20 18 17 16 14 10
36 40 42 39 32 28 30 31 28 37 38 38 38 40 43 47 50 52 56 55 50 47 44 43 43 43 44 47 50 53 51 49 48 48 45 40 36 33 32 31 28 25 23 21 19 18 16 14 11
40 43 44 39 35 28 30 34 31 43 39 34 35 40 44 51 54 58 58 55 52 47 46 44 44 44 45 46 48 55 55 52 52 50 47 42 37 35 33 32 28 25 24 23 22 21 21 24 23
35 39 38 40 30 30 33 39 32 30 35 32 34 33 38 41 49 58 61 58 56 49 45 45 45 46 45 46 48 57 59 62 57 50 45 41 40 39 34 31 30 28 26 25 27 31 32 36 42
37 31 37 33 35 46 32 48 32 31 30 32 37 35 36 42 48 56 63 63 56 49 46 49 50 50 46 45 56 66 65 64 54 48 44 42 42 40 34 33 31 28 28 29 32 39 42 50 52
34 33 34 34 38 41 39 44 33 26 24 32 45 41 47 53 57 63 65 62 54 49 51 54 53 54 50 49 50 52 52 53 55 56 56 51 42 36 32 30 34 32 32 36 40 44 52 62 70
29 30 38 46 46 63 45 40 42 38 38 48 54 54 53 60 66 65 65 60 53 54 59 62 60 58 54 52 55 53 52 52 55 57 51 42 36 33 30 32 32 34 40 41 44 50 56 68 76
29 39 59 53 64 58 42 48 41 43 59 63 69 64 66 64 66 65 65 60 52 63 70 64 63 58 55 56 56 55 56 58 56 52 47 39 34 30 29 31 33 36 40 43 46 50 58 65 73
40 42 62 60 61 52 37 46 33 59 63 62 64 64 68 67 64 63 62 57 59 71 68 64 64 62 61 60 59 57 58 59 54 47 36 32 31 30 31 32 34 36 38 40 41 42 41 48 59
38 47 34 46 48 62 48 36 44 63 62 62 66 69 70 69 68 64 63 59 67 68 63 64 66 66 65 64 62 63 64 59 52 39 34 30 30 31 30 31 31 32 32 31 29 26 25 27 34
32 32 43 50 51 58 47 42 44 56 61 67 73 67 66 68 67 66 63 65 69 67 64 69 73 72 69 69 69 67 64 58 44 35 32 31 30 27 21 17 20 24 23 20 17 12 10 12 14
29 32 36 42 50 52 67 61 50 41 56 63 65 54 54 59 65 67 68 71 70 68 69 71 75 76 73 70 73 72 63 53 39 34 33 30 25 10 9 13 16 15 14 11 9 9 9 9 10
22 28 35 52 60 66 81 72 43 67 58 60 56 46 47 51 59 66 69 70 71 70 72 74 77 76 71 68 71 68 60 46 41 36 30 23 8 8 9 10 11 11 11 11 11 12 13 13 13

GFSSGP_850_rhum_177.txt.gz
RH
10 11 14 23 19 21 28 22 16 57 60 72 61 55 53 80 57 54 99 100 98 100 83 68 72 68 63 62 60 60 60 61 61 62 60 57 58 57 58 54 55 56 54 53 50 48 48 49 52
9 10 18 21 19 24 28 25 39 50 72 67 64 67 65 74 98 99 100 99 100 100 87 73 72 67 65 62 61 63 63 63 64 64 65 72 88 81 79 54 53 52 52 54 54 50 48 47 49
9 13 18 24 25 19 20 21 63 68 66 62 66 72 79 89 96 98 100 99 99 98 95 87 77 70 68 64 65 68 67 67 66 69 69 70 78 86 69 66 62 58 54 53 56 52 50 49 49
9 15 22 20 22 22 20 27 63 58 58 62 69 67 81 92 94 97 99 100 100 97 87 86 92 76 70 68 72 75 74 73 73 73 73 72 71 72 72 71 69 69 66 64 59 54 50 50 50
9 18 22 25 24 22 18 33 62 50 56 63 65 73 82 93 98 100 100 99 96 91 92 98 95 81 75 73 76 78 77 79 76 77 79 79 79 80 79 78 77 75 74 74 74 73 71 65 57
11 18 21 21 19 16 18 45 60 50 60 65 61 75 80 92 100 98 98 97 94 90 92 98 91 85 82 76 68 72 72 74 74 77 79 81 82 81 78 74 71 72 73 74 76 77 80 79 77
12 15 18 18 17 16 17 31 46 52 57 58 63 64 80 98 100 97 96 90 87 90 95 99 94 88 80 64 57 61 57 51 48 41 35 34 29 26 28 32 31 33 35 36 38 48 68 79 82
10 14 16 15 15 17 19 25 36 42 44 62 64 55 72 96 98 96 91 85 86 91 95 98 85 74 57 46 43 32 22 18 18 19 18 18 18 17 17 18 18 18 17 17 17 18 19 22 32
10 13 15 14 15 13 22 23 30 38 48 61 62 58 67 84 94 88 82 84 87 90 86 83 70 55 43 32 26 22 20 19 19 20 20 20 19 18 18 17 16 16 16 15 15 14 14 15 17
11 14 14 12 12 12 14 19 34 43 51 53 57 59 64 87 91 86 82 84 84 67 50 51 49 43 35 31 28 26 23 22 21 20 19 19 19 18 18 17 16 15 14 14 13 13 13 13 14
16 13 13 13 14 12 16 23 31 38 45 47 54 60 68 87 88 81 78 70 52 36 33 32 32 32 29 28 27 26 25 25 24 22 21 20 19 18 17 17 16 16 15 14 14 14 13 13 12
24 18 17 18 19 16 12 21 24 35 23 22 31 52 71 84 81 77 68 48 38 34 32 30 27 27 29 29 28 28 28 26 24 23 22 21 20 18 18 17 16 15 15 14 15 14 13 13 13
26 22 24 22 22 22 16 22 20 22 20 20 29 51 70 79 74 61 51 46 43 40 37 33 30 31 31 31 32 31 31 29 27 25 23 22 21 19 18 17 17 16 16 16 15 14 14 14 14
29 28 27 24 23 20 18 22 29 20 21 24 48 59 75 75 64 54 49 45 42 40 38 34 32 32 33 34 34 33 32 30 29 29 27 25 22 21 19 18 18 18 17 16 16 14 13 12 12
29 28 24 23 24 24 22 23 24 21 32 39 61 68 74 65 55 50 47 44 42 40 39 35 34 36 37 37 36 35 34 33 33 32 30 27 25 23 22 20 20 19 18 18 17 15 14 13 12
28 30 32 23 22 22 21 22 22 25 35 58 70 71 67 59 52 50 48 45 42 42 39 37 36 36 36 37 38 38 37 37 36 35 32 30 27 24 23 22 21 20 19 18 17 15 14 12 11
37 35 34 27 21 20 19 21 20 28 50 55 61 66 64 59 54 53 50 48 46 45 43 41 40 40 40 39 40 42 42 41 40 37 34 31 28 26 24 23 22 21 20 19 18 15 12 10 9
21 33 34 34 26 25 26 22 20 30 45 49 52 57 61 60 55 53 51 50 50 47 44 41 39 42 43 43 44 44 45 44 41 42 39 35 31 29 27 26 24 23 21 18 16 14 13 11 9
33 37 36 32 28 30 30 28 22 27 42 44 47 51 54 56 55 53 53 53 52 48 43 42 41 40 43 44 49 51 52 50 47 46 43 37 33 31 30 27 24 22 21 18 17 16 13 12 10
35 36 33 30 29 31 29 29 24 29 32 36 40 46 49 53 54 55 57 57 53 47 44 44 43 44 46 50 52 52 55 53 52 50 45 38 35 32 31 29 26 24 22 21 18 17 20 18 16
31 34 32 28 26 27 30 29 29 27 34 35 39 42 45 42 47 55 60 59 54 48 46 47 46 47 47 48 52 53 52 51 50 46 41 37 35 33 30 27 25 23 21 21 20 23 29 33 37
33 25 26 28 32 33 31 29 28 26 28 33 38 46 44 49 55 57 64 63 54 49 49 51 52 51 48 48 50 53 52 49 49 46 43 40 36 32 28 26 23 21 23 27 31 33 36 43 50
31 32 31 32 35 37 33 34 25 27 28 33 41 46 50 59 61 64 66 62 53 50 52 55 56 52 48 48 50 52 51 50 50 48 45 38 33 29 24 22 24 27 28 34 37 44 48 51 59
28 31 36 40 39 46 34 32 23 27 32 39 48 55 53 57 65 65 64 60 55 54 60 61 56 54 52 54 56 58 57 53 51 49 43 38 31 25 23 24 28 31 34 40 42 47 50 55 65
28 34 44 45 53 45 38 40 27 32 46 49 52 58 65 69 66 66 67 62 57 58 67 64 59 57 58 59 56 55 55 54 52 48 41 32 28 26 26 28 31 34 37 38 37 36 38 44 49
34 31 42 51 45 36 38 36 23 44 57 60 62 67 62 67 67 66 65 62 59 64 68 62 61 63 60 57 57 56 56 53 51 44 33 27 25 26 27 29 31 32 31 28 25 23 24 29 36
37 39 28 41 38 46 33 30 25 52 51 56 58 68 69 66 66 67 68 62 61 67 67 64 63 62 60 61 61 58 57 57 50 35 26 25 26 26 24 22 22 21 18 14 9 8 9 11 11
31 29 42 45 53 51 38 38 32 33 39 50 69 63 66 64 66 69 67 65 66 70 69 67 66 65 64 65 64 63 60 55 42 28 25 26 24 14 12 13 12 9 8 8 8 8 9 10 10
28 34 34 39 42 77 66 43 41 35 41 44 50 52 51 54 60 66 68 68 69 72 70 67 67 66 68 67 65 67 63 52 36 28 28 23 9 10 10 9 8 9 10 11 12 13 14 14 14
25 30 33 42 52 82 91 74 36 55 56 54 52 44 44 47 52 58 66 70 72 72 71 69 68 70 69 66 66 65 64 47 35 31 25 8 8 9 9 10 11 12 13 14 14 15 16 17 17

GFSSGP_850_rhum_180.txt.gz
RH
7 10 14 24 15 10 9 13 16 28 36 50 33 34 28 51 33 44 98 100 99 97 88 73 68 71 72 70 67 63 64 64 66 64 62 64 65 72 73 74 75 70 64 61 57 54 52 52 52
6 10 20 15 12 8 12 16 23 23 48 52 51 48 43 48 71 97 100 98 97 98 87 86 78 73 71 68 66 66 65 65 68 81 96 92 87 89 97 89 59 62 60 58 56 54 54 54 54
8 11 14 12 10 8 10 12 29 42 52 45 46 53 54 66 85 98 100 93 92 98 99 80 78 74 71 70 68 67 66 68 69 71 74 89 93 98 86 71 68 64 60 56 52 48 48 49 52
11 15 16 12 10 13 13 12 39 40 49 48 46 47 65 81 90 98 100 100 96 99 100 94 84 75 69 70 73 74 73 73 73 73 72 73 74 75 75 75 77 76 75 74 72 68 61 53 49
12 12 12 12 10 14 12 16 40 36 41 47 49 50 64 87 97 100 100 100 99 100 99 100 90 91 74 74 77 78 78 77 78 76 75 75 80 79 79 81 81 82 81 81 81 80 79 76 71
9 11 12 11 12 11 12 24 43 37 42 49 47 49 65 92 98 98 99 100 100 98 98 100 96 91 84 85 80 75 71 74 73 74 72 72 65 61 54 49 47 44 45 46 50 63 74 80 79
9 10 10 11 11 12 14 32 42 38 39 41 48 40 71 90 96 96 99 100 98 95 96 92 99 98 94 82 71 67 69 66 63 62 54 43 30 25 23 23 22 22 22 24 26 27 30 31 43
9 9 11 11 11 12 14 23 33 38 34 49 51 38 52 83 95 89 98 96 93 92 93 98 92 85 76 62 56 49 36 25 20 20 20 20 20 20 20 19 18 17 16 16 16 16 15 17 20
9 10 11 11 11 10 16 20 31 35 34 45 51 47 62 86 88 82 89 89 89 90 93 92 82 69 52 37 27 23 22 20 20 19 19 19 19 18 18 17 16 16 15 13 13 12 13 14 15
9 12 11 9 9 10 10 12 20 28 32 40 48 63 72 83 81 77 72 77 85 87 85 80 68 53 42 32 28 27 25 22 21 20 20 20 19 18 18 16 15 14 14 13 12 12 12 12 14
15 13 10 9 10 9 9 12 19 18 20 28 37 55 69 78 76 71 66 70 74 79 64 47 42 37 33 32 31 29 26 24 23 22 21 21 20 19 18 17 16 15 14 13 13 12 13 12 13
18 16 13 14 15 16 10 12 13 14 14 25 30 51 64 73 73 67 64 65 65 60 39 30 30 30 31 33 32 29 26 26 26 24 23 22 21 19 18 17 16 15 14 14 13 13 12 13 13
20 18 18 17 18 18 17 14 12 13 14 33 38 53 61 68 67 64 63 60 60 55 39 36 34 32 32 32 30 30 29 28 26 25 24 22 21 20 19 18 17 16 16 15 14 14 13 13 12
23 23 21 20 18 19 17 14 19 12 26 35 43 50 59 64 62 62 63 60 60 56 40 36 35 33 34 32 34 34 33 31 31 30 28 25 24 22 20 19 19 18 17 16 15 14 14 14 13
24 25 18 18 18 18 19 18 19 16 29 31 41 49 58 62 61 63 60 62 60 57 39 37 34 33 34 36 38 37 37 37 35 33 30 28 25 23 22 21 20 19 18 17 16 15 14 14 13
20 22 18 17 17 17 18 15 16 20 26 26 37 49 57 59 59 58 61 61 62 58 43 36 34 35 38 40 43 41 40 40 38 36 32 29 27 26 24 23 22 20 19 18 16 14 13 14 16
22 14 19 18 17 17 17 16 14 22 25 23 36 47 54 56 56 58 62 61 60 60 40 35 34 37 39 41 44 44 44 45 43 39 36 32 29 27 26 24 22 21 20 18 15 14 12 12 12
16 15 15 17 16 19 18 18 15 16 23 27 32 43 51 54 56 62 64 63 61 50 39 37 39 39 42 45 46 46 47 46 45 41 38 35 31 29 28 26 24 22 19 17 15 13 14 20 12
19 20 20 16 14 20 18 15 13 13 23 24 33 39 47 52 55 64 68 70 59 45 41 41 42 43 48 62 82 84 86 50 46 43 39 34 31 30 28 26 23 21 19 16 14 13 15 26 9
22 24 22 17 14 20 16 16 14 15 19 20 25 31 40 52 58 69 75 72 53 47 43 44 50 46 65 79 80 74 64 54 48 45 40 34 32 30 28 25 22 20 20 16 15 15 37 64 20
23 24 24 22 17 15 17 19 16 13 16 21 26 27 33 44 57 69 75 72 69 53 46 53 63 61 69 62 51 53 54 55 66 56 42 37 34 30 27 23 20 18 18 25 25 27 37 71 74
27 19 20 20 21 22 17 24 16 16 20 23 24 30 32 38 52 64 72 72 70 65 55 60 60 57 50 49 72 73 72 70 75 57 43 39 34 29 25 21 20 22 32 35 41 40 58 70 79
22 25 26 25 24 24 22 24 20 15 18 17 26 32 34 39 46 57 67 69 66 68 64 70 57 58 49 55 80 83 80 66 58 48 44 39 32 25 20 19 22 24 31 38 39 50 66 88 89
18 24 24 27 27 36 23 23 21 17 21 20 29 36 36 42 47 55 66 67 66 73 76 69 60 54 50 50 51 74 74 70 75 68 64 44 30 23 21 22 25 32 31 33 40 45 53 78 86
24 27 32 29 34 35 25 26 21 20 27 27 31 36 46 50 54 59 65 64 70 74 79 80 70 66 56 52 55 68 60 66 72 70 60 42 31 25 22 24 25 26 28 27 27 30 44 50 77
23 24 32 32 28 23 27 28 20 24 32 40 40 45 50 54 60 60 63 65 71 77 81 76 74 67 61 55 64 60 61 73 59 45 40 27 27 23 22 18 21 23 17 11 11 17 29 35 66
25 29 20 30 28 34 25 20 16 23 27 37 36 46 50 54 59 59 61 65 72 79 83 80 78 76 60 58 64 66 62 56 48 36 25 22 22 18 13 17 16 10 7 7 9 21 43 53 69
22 20 31 30 48 38 24 22 23 22 23 26 49 42 55 56 61 64 64 69 75 80 87 85 71 63 62 68 69 64 58 53 44 30 23 21 17 10 14 12 10 11 10 12 29 47 41 65 69
24 26 27 26 37 56 41 30 27 27 31 33 31 51 48 60 62 71 75 80 87 87 88 70 68 66 66 67 66 63 59 54 39 26 24 17 8 12 16 12 14 13 15 24 24 23 40 48 69
20 24 25 37 45 84 63 66 27 32 31 29 27 38 47 54 66 71 86 69 79 78 77 72 67 65 67 68 70 72 64 52 36 24 21 8 9 12 12 15 16 15 16 15 18 20 23 31 46

GFSSGP_850_rhum_183.txt.gz
RH
8 17 16 18 15 10 7 5 6 10 21 31 23 19 24 34 30 42 97 97 98 96 99 99 98 96 82 73 83 95 88 71 65 62 63 65 69 69 70 70 71 69 65 59 58 55 50 49 47
12 13 15 14 12 8 6 8 11 14 34 36 36 32 30 40 59 96 99 98 96 96 99 98 72 69 70 69 80 94 99 98 98 99 88 85 84 84 86 88 82 75 78 79 79 80 88 54 49
7 13 12 11 10 9 7 9 12 25 37 33 33 40 39 54 70 89 96 98 97 98 98 91 71 68 71 71 75 82 84 84 91 98 99 97 99 100 100 89 79 73 69 66 62 63 64 59 56
10 10 12 10 8 7 8 9 15 27 35 33 32 38 56 70 71 93 98 98 99 99 99 100 95 72 72 76 78 79 79 79 79 78 78 79 79 84 83 81 81 81 81 80 78 79 79 76 69
10 9 9 10 8 7 9 9 15 20 27 34 35 41 56 75 96 94 96 99 99 99 99 99 97 86 77 78 84 86 87 85 83 80 81 78 80 83 85 84 82 77 76 76 74 76 78 81 82
8 8 9 8 7 8 8 13 22 23 29 36 37 40 58 86 97 99 98 95 97 100 98 98 99 98 90 77 81 83 83 83 79 76 74 78 78 71 57 45 38 34 30 31 32 32 31 34 51
8 8 9 8 7 8 8 16 22 24 28 30 37 33 61 81 97 96 99 99 99 100 99 98 97 97 92 85 82 80 80 76 72 66 65 44 25 21 18 18 18 18 17 17 16 16 16 16 16
9 8 9 8 8 8 10 14 24 30 23 35 35 30 50 75 90 92 96 98 96 94 96 96 99 98 90 79 66 63 53 38 27 20 19 18 18 18 18 17 17 16 16 15 14 14 13 13 14
10 10 10 8 9 8 10 13 20 24 28 31 38 37 50 77 78 79 84 88 92 90 90 94 93 83 66 45 32 30 23 20 20 20 20 20 19 18 17 17 16 15 14 14 13 12 12 12 12
10 10 10 8 8 9 8 9 11 21 20 26 40 49 62 72 71 70 73 77 85 86 87 88 88 82 65 61 33 26 24 20 20 20 20 19 19 19 18 17 16 15 14 13 13 12 11 11 12
12 12 9 8 9 9 8 9 10 12 12 18 32 46 60 64 64 64 62 67 75 78 75 80 85 77 65 64 58 57 60 40 24 22 21 20 20 19 21 23 20 16 16 15 15 22 14 12 11
14 11 12 10 11 11 10 9 10 10 10 19 24 41 52 58 60 59 55 58 64 67 70 73 73 48 57 55 57 61 61 50 41 23 22 24 38 21 20 20 19 19 16 15 15 17 13 13 12
12 11 13 12 13 13 12 12 10 10 10 22 21 39 46 52 56 55 52 54 59 61 63 63 56 36 33 54 60 58 59 57 43 32 24 23 29 23 23 21 22 20 17 17 16 16 15 19 30
13 14 13 14 14 14 14 13 12 12 11 18 24 31 39 48 52 53 54 54 57 58 64 71 75 56 68 66 58 58 57 50 48 32 27 25 25 23 28 27 30 26 19 18 19 16 20 38 44
16 15 11 11 13 13 15 16 14 13 16 16 22 24 33 43 49 51 53 56 55 58 68 75 81 82 75 53 63 68 59 63 57 36 29 27 25 25 29 31 26 20 20 21 24 24 34 50 46
15 15 17 10 12 12 15 14 11 14 15 18 18 24 34 42 47 50 55 56 55 57 68 72 73 83 77 69 76 77 66 67 65 51 33 29 27 26 36 45 27 21 29 28 32 48 50 53 50
15 18 15 13 13 12 14 14 12 15 16 16 17 25 35 41 47 52 54 54 53 57 66 69 80 86 79 67 82 67 50 74 68 63 51 33 29 27 31 28 24 28 53 44 26 35 46 58 52
19 17 14 14 12 14 16 15 12 11 12 15 16 23 33 40 46 50 54 52 52 59 66 75 83 88 84 80 77 86 78 78 75 69 45 36 31 28 40 52 25 50 67 59 20 19 56 62 58
20 20 20 16 13 15 16 15 14 11 11 12 16 20 29 38 44 49 55 56 55 64 68 75 86 85 83 82 76 78 76 77 79 60 42 36 32 30 28 60 49 55 57 24 17 16 47 60 42
21 22 20 16 14 15 15 15 12 11 11 12 14 17 24 35 42 51 59 62 61 68 69 74 82 76 75 72 69 74 76 76 77 70 43 36 32 29 32 27 41 22 64 44 23 22 37 61 69
20 21 21 20 16 14 14 14 12 10 10 11 13 15 19 31 42 54 61 67 67 69 71 72 79 81 72 74 80 81 69 73 78 74 75 38 33 28 24 21 19 34 46 68 35 29 63 71 66
23 15 18 19 20 22 14 21 13 10 11 13 14 16 20 24 38 50 61 68 66 66 70 67 74 76 78 70 74 76 64 60 69 70 73 49 32 26 22 19 28 36 80 65 72 67 84 78 74
19 16 19 19 22 22 17 16 12 9 12 12 16 19 24 26 34 46 58 62 64 65 72 69 72 72 77 79 76 80 70 78 75 77 74 52 36 24 19 26 44 61 67 77 62 80 95 87 83
14 17 18 19 20 28 19 17 15 13 18 17 22 25 25 28 33 42 53 60 60 66 72 75 73 72 80 82 82 78 80 72 74 75 72 70 64 65 32 40 47 41 37 47 81 91 80 88 85
18 23 28 25 22 22 11 18 16 13 17 17 20 24 28 30 33 40 50 56 56 66 73 78 71 74 82 81 76 73 82 80 81 77 66 61 63 71 50 57 45 35 27 42 73 71 56 56 81
18 18 26 33 28 23 14 20 14 15 16 20 24 28 33 36 39 41 47 54 55 66 76 76 72 76 81 82 82 70 82 81 78 70 66 60 63 73 47 31 26 18 23 37 52 62 67 79 75
19 25 18 25 24 29 19 14 11 10 14 23 23 29 35 36 42 45 47 53 57 67 74 75 70 73 82 85 80 70 79 80 76 78 60 64 60 39 36 44 26 18 19 35 64 70 71 72 72
18 15 24 23 38 41 24 19 16 24 24 24 28 30 39 38 43 46 48 55 58 68 74 78 74 75 84 88 81 75 84 80 75 58 53 66 35 58 45 39 36 42 45 65 66 66 73 71 69
18 22 23 22 26 39 41 30 20 26 27 27 30 39 36 47 44 50 58 60 63 70 74 82 78 78 85 88 82 89 89 80 60 52 48 63 55 67 66 55 59 61 68 66 68 69 70 72 76
18 20 19 29 29 30 47 60 24 27 26 23 22 28 32 36 53 53 64 73 73 76 78 86 82 82 90 89 89 96 88 71 61 46 64 58 63 69 70 61 50 58 59 68 69 66 70 74 77